Preview of NWS' New Version of Forecast
This preview is not operational and should not be used for support decisions.

Regional Weather Roundup (RWR)

Issued by Philadelphia/Mt Holly (PHI)

                            
000
ASUS41 KPHI 171812
RWRPHI

REGIONAL WEATHER ROUNDUP
NATIONAL WEATHER SERVICE MOUNT HOLLY NJ
100 PM EST THU JAN 17 2019

NOTE:  "FAIR" INDICATES FEW OR NO CLOUDS BELOW 12,000 FEET WITH NO
SIGNIFICANT WEATHER AND/OR OBSTRUCTIONS TO VISIBILITY.

 * = STATION DOES NOT REPORT PRECIPITATION (E.G. RAIN, SNOW, ETC.) 
        OR FOG.

NJZ015>026-171900-
SOUTHERN NEW JERSEY
  
CITY           SKY/WX    TMP DP  RH WIND       PRES   REMARKS
POMONA         FAIR      32  13  45 SE6       30.36F WCI  26          
6HR MIN TEMP:  24; 6HR MAX TEMP:  33;                                

WILDWOOD*      FAIR      34  16  47 E7        30.36F WCI  28          
MILLVILLE      FAIR      33  16  49 N3        30.35F                  
WRIGHTSTOWN    PTSUNNY   33   4  30 N5        30.32F WCI  28          
MOUNT HOLLY    FAIR      32   5  32 CALM      30.36F                  
TRENTON        FAIR      31   6  35 CALM      30.34F                  
6HR MIN TEMP:  24; 6HR MAX TEMP:  31;                                


$$
NJZ001>014-171900-
NORTHERN NEW JERSEY
  
CITY           SKY/WX    TMP DP  RH WIND       PRES   REMARKS
SUSSEX         FAIR      29   5  36 SE5       30.32F WCI  24          
ANDOVER*         N/A     28   3  34 CALM      30.31F                  
MORRISTOWN     PTSUNNY   28   7  40 SE5       30.36F WCI  23          
NEWARK         PTSUNNY   30   6  36 E6        30.36F WCI  24          
TETERBORO      FAIR      31   7  36 NE7       30.35F WCI  24          
CALDWELL       FAIR      28   5  37 CALM      30.35F                  
SOMERVILLE     FAIR      32   4  30 VRB3      30.33F                  
ALLAIRE*       FAIR      29  14  53 E8        30.35F WCI  21          
TOMS RIVER*    FAIR      34  15  46 VRB6      30.36F WCI  29          

$$
PAZ043-044-047-054-055-060>062-066>071-171900-
EASTERN PENNSYLVANIA
  
CITY           SKY/WX    TMP DP  RH WIND       PRES   REMARKS
PHILADELPHIA   CLOUDY    33   5  30 E5        30.36F WCI  29          
6HR MIN TEMP:  26; 6HR MAX TEMP:  33;                                

NORTH PHILA    FAIR      33   3  28 VRB3      30.37F                  
BLUE BELL*     FAIR      30   5  34 CALM      30.36F                  
DOYLESTOWN     FAIR      31   1  28 NE3       30.33F                  
QUAKERTOWN*    SUNNY     30   0  27 VRB3      30.32                   
PERKASIE*      FAIR      28   1  31 CALM      30.33F                  
POTTSTOWN      FAIR      28   6  39 CALM      30.35F                  
LANCASTER      FAIR      31  16  54 E8        30.32F WCI  23          
COATESVILLE    FAIR      28  14  54 SE5       30.32F WCI  23          
READING        FAIR      31  12  45 CALM      30.33F                  
6HR MIN TEMP:  23; 6HR MAX TEMP:  31;                                

ALLENTOWN      FAIR      30   4  33 VRB3      30.34F                  
6HR MIN TEMP:  22; 6HR MAX TEMP:  31;                                

MOUNT POCONO   FAIR      23   1  38 VRB6      30.21F WCI  16          
6HR MIN TEMP:  12; 6HR MAX TEMP:  23;                                

HAZLETON       FAIR     N/A N/A N/A CALM      30.25                   
LEHIGHTON      FAIR      32   1  27 CALM      30.32F                  
WILKES BARRE   FAIR      26   4  38 VRB3      30.26F                  

$$
DEZALL-MDZ008-012-015-019-020-171900-
DELAWARE AND EASTERN MARYLAND
  
CITY           SKY/WX    TMP DP  RH WIND       PRES   REMARKS
WILMINGTON     FAIR      31  15  52 E5        30.36F WCI  26          
6HR MIN TEMP:  25; 6HR MAX TEMP:  32;                                

GEORGETOWN     FAIR      39  26  59 E6        30.35F WCI  35          
6HR MIN TEMP:  31; 6HR MAX TEMP:  39;                                

EASTON         MOSUNNY   36  21  55 NE7       30.37F WCI  30          
ABERDEEN       CLOUDY    30  19  64 E7        30.36F WCI  23          
PATUXENT       CLOUDY    38  29  70 E6        30.33  WCI  33          
OCEAN CITY     FAIR      39  26  59 NE5       30.34F                  
WALLOPS ISLAND FAIR      41  28  60 MISG      30.32F                  
CAMBRIDGE      MOSUNNY   37  25  60 E7        30.33F WCI  32          
SALISBURY      FAIR      39  28  64 E9        30.32F WCI  33          

$$
PAZ001-021-NYZ056-072-MDZ011-DCZ001-171900-
OTHER NEARBY LOCATIONS
  
CITY           SKY/WX    TMP DP  RH WIND       PRES   REMARKS
HARRISBURG     CLOUDY    31  17  56 SE6       30.31F WCI  25          
STATE COLLEGE  CLOUDY    28  18  64 CALM      30.21F                  
WILLIAMSPORT   FAIR      28  11  48 VRB3      30.29F                  
BINGHAMTON     FAIR      18   9  68 MISG      30.21F                  
NEW YORK CITY  FAIR      30   5  34 MISG      30.37F                  
BALTIMORE      CLOUDY    34  21  59 E8        30.32F WCI  27          
WASHINGTON DC  CLOUDY    37  22  54 E9        30.32F WCI  30          

$$